Location: Banska Bystrica
(0.0000°N, 19.1500°E)
Time: 14:26:27
(UTC+01:00)

Cosmos 1812 - Pass Details

Date: 19 February 2019
Orbit: 517 x 524 km, 82.5° (Epoch: 17 March)

Event Time Altitude Azimuth Distance (km) Brightness Sun altitude
Rises 19:16:56 0° 351° (N) 2,619 6.3 -19.5°
Reaches altitude 10° 19:19:04 10° 347° (NNW) 1,735 5.4 -20.1°
Maximum altitude 19:22:50 62° 266° (W) 581 3.1 -21.0°
Drops below altitude 10° 19:26:37 10° 185° (S) 1,744 5.6 -21.9°
Sets 19:28:46 0° 182° (S) 2,634 6.5 -22.4°
